| time (UTC) | temp F | wind direction | speed MPH | gust MPH | rain 1hr in | rain 24hr in | rain mn in | humidity % | barometer mb |
| 20260506175113 | 69 | 173 | 10.0 | 20.0 | 0.00 | 0.00 | 0.00 | 45 | 1005.3 |
| 20260506174112 | 70 | 178 | 12.0 | 20.0 | 0.00 | 0.00 | 0.00 | 44 | 1005.4 |
| 20260506173112 | 70 | 159 | 12.0 | 19.0 | 0.00 | 0.00 | 0.00 | 43 | 1005.3 |
| 20260506172112 | 71 | 170 | 18.0 | 25.0 | 0.00 | 0.00 | 0.00 | 42 | 1005.2 |
| 20260506171112 | 71 | 182 | 13.0 | 31.0 | 0.00 | 0.00 | 0.00 | 40 | 1005.3 |
| 20260506170112 | 72 | 180 | 12.0 | 19.0 | 0.00 | 0.00 | 0.00 | 39 | 1005.4 |
| 20260506165112 | 72 | 172 | 13.0 | 23.0 | 0.00 | 0.00 | 0.00 | 38 | 1005.5 |
| 20260506164112 | 73 | 156 | 12.0 | 22.0 | 0.00 | 0.00 | 0.00 | 37 | 1005.4 |
| 20260506163112 | 73 | 177 | 19.0 | 30.0 | 0.00 | 0.00 | 0.00 | 36 | 1005.5 |
| 20260506162112 | 74 | 164 | 21.0 | 33.0 | 0.00 | 0.00 | 0.00 | 36 | 1005.5 |
| 20260506161112 | 74 | 178 | 14.0 | 35.0 | 0.00 | 0.00 | 0.00 | 36 | 1005.7 |
| 20260506160112 | 75 | 177 | 23.0 | 30.0 | 0.00 | 0.00 | 0.00 | 35 | 1005.7 |
| 20260506155112 | 75 | 191 | 19.0 | 30.0 | 0.00 | 0.00 | 0.00 | 35 | 1005.8 |
| 20260506154112 | 75 | 177 | 20.0 | 25.0 | 0.00 | 0.00 | 0.00 | 35 | 1005.8 |
| 20260506153112 | 75 | 169 | 15.0 | 22.0 | 0.00 | 0.00 | 0.00 | 35 | 1005.9 |
| 20260506152112 | 75 | 181 | 13.0 | 23.0 | 0.00 | 0.00 | 0.00 | 34 | 1005.9 |
| 20260506151112 | 76 | 138 | 17.0 | 25.0 | 0.00 | 0.00 | 0.00 | 33 | 1005.9 |
| 20260506150112 | 76 | 182 | 15.0 | 26.0 | 0.00 | 0.00 | 0.00 | 32 | 1005.9 |
| 20260506145112 | 76 | 167 | 16.0 | 28.0 | 0.00 | 0.00 | 0.00 | 33 | 1005.9 |
| 20260506144111 | 76 | 140 | 18.0 | 31.0 | 0.00 | 0.00 | 0.00 | 33 | 1006.2 |
| 20260506143111 | 78 | 161 | 18.0 | 26.0 | 0.00 | 0.00 | 0.00 | 32 | 1006.2 |
| 20260506142112 | 77 | 136 | 20.0 | 28.0 | 0.00 | 0.00 | 0.00 | 32 | 1006.2 |
| 20260506141112 | 78 | 147 | 15.0 | 29.0 | 0.00 | 0.00 | 0.00 | 32 | 1006.3 |
| 20260506140112 | 78 | 129 | 16.0 | 29.0 | 0.00 | 0.00 | 0.00 | 31 | 1006.5 |
| 20260506135112 | 77 | 159 | 18.0 | 26.0 | 0.00 | 0.00 | 0.00 | 31 | 1006.7 |
| 20260506134112 | 75 | 152 | 18.0 | 26.0 | 0.00 | 0.00 | 0.00 | 33 | 1006.8 |
| 20260506133111 | 75 | 151 | 15.0 | 23.0 | 0.00 | 0.00 | 0.00 | 32 | 1006.8 |
| 20260506132111 | 75 | 160 | 13.0 | 23.0 | 0.00 | 0.00 | 0.00 | 31 | 1006.8 |
| 20260506131111 | 76 | 126 | 15.0 | 20.0 | 0.00 | 0.00 | 0.00 | 32 | 1007.0 |
| 20260506130111 | 76 | 157 | 17.0 | 29.0 | 0.00 | 0.00 | 0.00 | 31 | 1007.0 |
| 20260506125111 | 76 | 140 | 14.0 | 28.0 | 0.00 | 0.00 | 0.00 | 31 | 1007.2 |
| 20260506124112 | 76 | 171 | 14.0 | 23.0 | 0.00 | 0.00 | 0.00 | 31 | 1007.5 |
| 20260506123111 | 77 | 182 | 17.0 | 24.0 | 0.00 | 0.00 | 0.00 | 31 | 1007.7 |
| 20260506122111 | 77 | 132 | 18.0 | 27.0 | 0.00 | 0.00 | 0.00 | 32 | 1007.8 |
| 20260506121111 | 77 | 155 | 15.0 | 30.0 | 0.00 | 0.00 | 0.00 | 31 | 1007.8 |
| 20260506120111 | 76 | 167 | 16.0 | 24.0 | 0.00 | 0.00 | 0.00 | 34 | 1008.1 |
| 20260506115111 | 76 | 153 | 18.0 | 29.0 | 0.00 | 0.00 | 0.00 | 35 | 1008.0 |
| 20260506114111 | 75 | 175 | 15.0 | 25.0 | 0.00 | 0.00 | 0.00 | 34 | 1008.1 |
| 20260506113111 | 77 | 167 | 12.0 | 24.0 | 0.00 | 0.00 | 0.00 | 34 | 1008.2 |
| 20260506112111 | 77 | 160 | 13.0 | 23.0 | 0.00 | 0.00 | 0.00 | 36 | 1008.3 |
| 20260506111111 | 76 | 115 | 11.0 | 23.0 | 0.00 | 0.00 | 0.00 | 36 | 1008.5 |
| 20260506110111 | 76 | 184 | 14.0 | 24.0 | 0.00 | 0.00 | 0.00 | 36 | 1008.5 |
| 20260506105111 | 76 | 138 | 18.0 | 26.0 | 0.00 | 0.00 | 0.00 | 37 | 1008.5 |
| 20260506104111 | 76 | 171 | 12.0 | 20.0 | 0.00 | 0.00 | 0.00 | 37 | 1008.6 |
| 20260506103111 | 76 | 136 | 13.0 | 22.0 | 0.00 | 0.00 | 0.00 | 37 | 1008.8 |
| 20260506102111 | 76 | 140 | 16.0 | 22.0 | 0.00 | 0.00 | 0.00 | 36 | 1009.0 |
| 20260506101111 | 77 | 360 | 13.0 | 20.0 | 0.00 | 0.00 | 0.00 | 39 | 1009.0 |
| 20260506100111 | 76 | 153 | 10.0 | 20.0 | 0.00 | 0.00 | 0.00 | 38 | 1009.1 |
| 20260506095111 | 76 | 140 | 10.0 | 16.0 | 0.00 | 0.00 | 0.00 | 38 | 1009.1 |
| 20260506094111 | 75 | 149 | 12.0 | 15.0 | 0.00 | 0.00 | 0.00 | 38 | 1009.1 |
| 20260506093111 | 76 | 125 | 10.0 | 17.0 | 0.00 | 0.00 | 0.00 | 38 | 1009.3 |
| 20260506092111 | 76 | 130 | 7.0 | 11.0 | 0.00 | 0.00 | 0.00 | 38 | 1009.3 |
| 20260506091111 | 75 | 123 | 9.0 | 13.0 | 0.00 | 0.00 | 0.00 | 38 | 1009.3 |
| 20260506090110 | 75 | 134 | 9.0 | 12.0 | 0.00 | 0.00 | 0.00 | 36 | 1009.4 |
| 20260506085110 | 75 | 163 | 6.0 | 13.0 | 0.00 | 0.00 | 0.00 | 37 | 1009.4 |
| 20260506084111 | 75 | 130 | 2.0 | 12.0 | 0.00 | 0.00 | 0.00 | 36 | 1009.5 |
| 20260506083111 | 74 | 172 | 4.0 | 9.0 | 0.00 | 0.00 | 0.00 | 38 | 1009.6 |
| 20260506082110 | 73 | 132 | 2.0 | 7.0 | 0.00 | 0.00 | 0.00 | 38 | 1009.5 |
| 20260506081111 | 73 | 179 | 3.0 | 6.0 | 0.00 | 0.00 | 0.00 | 39 | 1009.7 |
| 20260506080111 | 73 | 190 | 4.0 | 9.0 | 0.00 | 0.00 | 0.00 | 39 | 1009.8 |
| 20260506073110 | 70 | 257 | 1.0 | 7.0 | 0.00 | 0.00 | 0.00 | 45 | 1009.7 |
| 20260506072110 | 69 | 255 | 5.0 | 9.0 | 0.00 | 0.00 | 0.00 | 46 | 1009.9 |
| 20260506071110 | 69 | 233 | 5.0 | 9.0 | 0.00 | 0.00 | 0.00 | 45 | 1009.9 |
| 20260506070110 | 70 | 226 | 7.0 | 11.0 | 0.00 | 0.00 | 0.00 | 45 | 1009.9 |
| 20260506062110 | 66 | 256 | 10.0 | 14.0 | 0.00 | 0.00 | 0.00 | 51 | 1009.9 |
| 20260506061110 | 66 | 232 | 7.0 | 15.0 | 0.00 | 0.00 | 0.00 | 52 | 1009.7 |
| 20260506060110 | 64 | 224 | 11.0 | 15.0 | 0.00 | 0.00 | 0.00 | 54 | 1010.0 |
| 20260506051110 | 56 | 120 | 2.0 | 4.0 | 0.00 | 0.00 | 0.00 | 67 | 1009.8 |
| 20260506050110 | 55 | 129 | 2.0 | 6.0 | 0.00 | 0.00 | 0.00 | 67 | 1009.7 |
| 20260506045110 | 55 | 136 | 3.0 | 4.0 | 0.00 | 0.00 | 0.00 | 67 | 1009.5 |
| 20260506044110 | 54 | 142 | 2.0 | 3.0 | 0.00 | 0.00 | 0.00 | 67 | 1009.5 |
| 20260506043110 | 54 | 142 | 1.0 | 3.0 | 0.00 | 0.00 | 0.00 | 68 | 1009.4 |
| 20260506042110 | 53 | 144 | 4.0 | 6.0 | 0.00 | 0.00 | 0.00 | 67 | 1009.3 |
| 20260506041110 | 53 | 124 | 0.0 | 2.0 | 0.00 | 0.00 | 0.00 | 67 | 1009.2 |
| 20260506040110 | 53 | 124 | 3.0 | 5.0 | 0.00 | 0.00 | 0.00 | 67 | 1009.0 |
| 20260506035110 | 53 | 124 | 4.0 | 5.0 | 0.00 | 0.00 | 0.00 | 67 | 1009.0 |
| 20260506034110 | 53 | 127 | 4.0 | 7.0 | 0.00 | 0.00 | 0.00 | 67 | 1008.9 |
| 20260506033110 | 53 | 135 | 5.0 | 8.0 | 0.00 | 0.00 | 0.00 | 67 | 1008.9 |
| 20260506032110 | 53 | 105 | 0.0 | 4.0 | 0.00 | 0.00 | 0.00 | 67 | 1008.9 |
| 20260506031110 | 52 | 135 | 1.0 | 3.0 | 0.00 | 0.00 | 0.00 | 67 | 1009.0 |
| 20260506030110 | 52 | 159 | 4.0 | 7.0 | 0.00 | 0.00 | 0.00 | 67 | 1009.1 |
| 20260506025110 | 52 | 194 | 2.0 | 3.0 | 0.00 | 0.00 | 0.00 | 67 | 1009.0 |
| 20260506024109 | 52 | 204 | 2.0 | 5.0 | 0.00 | 0.00 | 0.00 | 67 | 1009.1 |
| 20260506023110 | 52 | 213 | 3.0 | 4.0 | 0.00 | 0.00 | 0.00 | 67 | 1009.1 |
| 20260506022109 | 52 | 200 | 1.0 | 4.0 | 0.00 | 0.00 | 0.00 | 66 | 1009.0 |
| 20260506021109 | 52 | 197 | 3.0 | 5.0 | 0.00 | 0.00 | 0.00 | 65 | 1008.9 |
| 20260506020109 | 53 | 170 | 0.0 | 0.0 | 0.00 | 0.00 | 0.00 | 64 | 1008.9 |
| 20260506015109 | 53 | 169 | 1.0 | 5.0 | 0.00 | 0.00 | 0.00 | 64 | 1008.8 |
| 20260506014109 | 53 | 171 | 3.0 | 5.0 | 0.00 | 0.00 | 0.00 | 64 | 1008.9 |
| 20260506013109 | 54 | 163 | 1.0 | 5.0 | 0.00 | 0.00 | 0.00 | 63 | 1008.9 |
| 20260506012109 | 54 | 169 | 2.0 | 4.0 | 0.00 | 0.00 | 0.00 | 63 | 1008.9 |
| 20260506011109 | 54 | 169 | 3.0 | 5.0 | 0.00 | 0.00 | 0.00 | 62 | 1008.8 |
| 20260506005112 | 55 | 132 | 3.0 | 3.0 | 0.00 | 0.00 | 0.00 | 60 | 1008.6 |
| 20260506004111 | 56 | 132 | 0.0 | 0.0 | 0.00 | 0.00 | 0.00 | 60 | 1008.5 |
| 20260506003111 | 56 | 133 | 0.0 | 0.0 | 0.00 | 0.00 | 0.00 | 61 | 1008.4 |
| 20260506002111 | 56 | 133 | 0.0 | 0.0 | 0.00 | 0.00 | 0.00 | 61 | 1008.3 |
| 20260506001111 | 56 | 132 | 0.0 | 2.0 | 0.00 | 0.00 | 0.00 | 61 | 1008.3 |
| 20260506000111 | 56 | 150 | 3.0 | 4.0 | 0.00 | 0.00 | 0.00 | 60 | 1008.0 |
| 20260505235111 | 56 | 153 | 0.0 | 0.0 | 0.00 | 0.00 | 0.00 | 60 | 1008.0 |
| 20260505234111 | 56 | 153 | 0.0 | 0.0 | 0.00 | 0.00 | 0.00 | 60 | 1007.9 |
| 20260505233111 | 56 | 153 | 0.0 | 0.0 | 0.00 | 0.00 | 0.00 | 59 | 1007.8 |
| 20260505232111 | 56 | 155 | 2.0 | 3.0 | 0.00 | 0.00 | 0.00 | 59 | 1007.7 |
| 20260505231111 | 57 | 144 | 1.0 | 3.0 | 0.00 | 0.00 | 0.00 | 57 | 1007.7 |
| 20260505230111 | 57 | 144 | 2.0 | 4.0 | 0.00 | 0.00 | 0.00 | 57 | 1007.5 |
| 20260505225111 | 58 | 157 | 3.0 | 5.0 | 0.00 | 0.00 | 0.00 | 56 | 1007.5 |
| 20260505224111 | 58 | 146 | 3.0 | 5.0 | 0.00 | 0.00 | 0.00 | 55 | 1007.3 |
| 20260505223111 | 59 | 121 | 4.0 | 7.0 | 0.00 | 0.00 | 0.00 | 55 | 1007.3 |
| 20260505222111 | 59 | 123 | 5.0 | 9.0 | 0.00 | 0.00 | 0.00 | 54 | 1007.0 |
| 20260505221111 | 60 | 169 | 5.0 | 9.0 | 0.00 | 0.00 | 0.00 | 54 | 1007.1 |
| 20260505220111 | 60 | 167 | 7.0 | 10.0 | 0.00 | 0.00 | 0.00 | 54 | 1007.0 |
| 20260505215111 | 60 | 147 | 7.0 | 11.0 | 0.00 | 0.00 | 0.00 | 53 | 1006.9 |
| 20260505214111 | 60 | 156 | 8.0 | 13.0 | 0.00 | 0.00 | 0.00 | 52 | 1006.8 |
| 20260505213111 | 61 | 136 | 8.0 | 12.0 | 0.00 | 0.00 | 0.00 | 51 | 1006.8 |
| 20260505212111 | 61 | 162 | 10.0 | 14.0 | 0.00 | 0.00 | 0.00 | 51 | 1006.9 |
| 20260505211111 | 62 | 142 | 8.0 | 12.0 | 0.00 | 0.00 | 0.00 | 50 | 1006.8 |
| 20260505210111 | 62 | 144 | 9.0 | 12.0 | 0.00 | 0.00 | 0.00 | 50 | 1006.9 |
| 20260505205111 | 62 | 140 | 9.0 | 13.0 | 0.00 | 0.00 | 0.00 | 49 | 1006.7 |
| 20260505204111 | 62 | 140 | 10.0 | 13.0 | 0.00 | 0.00 | 0.00 | 49 | 1006.7 |
| 20260505203111 | 63 | 153 | 7.0 | 11.0 | 0.00 | 0.00 | 0.00 | 49 | 1006.5 |
| 20260505202111 | 63 | 160 | 10.0 | 15.0 | 0.00 | 0.00 | 0.00 | 48 | 1006.6 |
| 20260505201111 | 63 | 148 | 11.0 | 17.0 | 0.00 | 0.00 | 0.00 | 48 | 1006.5 |
| 20260505200111 | 63 | 148 | 12.0 | 17.0 | 0.00 | 0.00 | 0.00 | 47 | 1006.4 |
| 20260505195111 | 64 | 153 | 9.0 | 13.0 | 0.00 | 0.00 | 0.00 | 47 | 1006.4 |
| 20260505194111 | 64 | 158 | 11.0 | 15.0 | 0.00 | 0.00 | 0.00 | 46 | 1006.3 |
| 20260505193110 | 64 | 138 | 11.0 | 15.0 | 0.00 | 0.00 | 0.00 | 46 | 1006.4 |
| 20260505192111 | 65 | 140 | 10.0 | 16.0 | 0.00 | 0.00 | 0.00 | 45 | 1006.5 |
| 20260505191110 | 65 | 150 | 9.0 | 16.0 | 0.00 | 0.00 | 0.00 | 44 | 1006.5 |
| 20260505190110 | 65 | 162 | 12.0 | 18.0 | 0.00 | 0.00 | 0.00 | 43 | 1006.5 |
| 20260505185110 | 66 | 136 | 11.0 | 16.0 | 0.00 | 0.00 | 0.00 | 43 | 1006.5 |
| 20260505184111 | 67 | 174 | 12.0 | 21.0 | 0.00 | 0.00 | 0.00 | 41 | 1006.4 |
| 20260505183110 | 67 | 160 | 10.0 | 16.0 | 0.00 | 0.00 | 0.00 | 41 | 1006.4 |
| 20260505182110 | 68 | 166 | 10.0 | 17.0 | 0.00 | 0.00 | 0.00 | 40 | 1006.5 |
| 20260505181110 | 68 | 154 | 14.0 | 19.0 | 0.00 | 0.00 | 0.00 | 40 | 1006.3 |
| 20260505180110 | 69 | 159 | 13.0 | 22.0 | 0.00 | 0.00 | 0.00 | 39 | 1006.3 |